カタログに戻る

SL-12 R/B(2)

運用中GEO
NORAD 19776·ROCKET BODY·🇷🇺 Russia

打ち上げ Jan 26, 1989 から Baikonur Cosmodrome

Loading…

TLE

最新Source: Space-Track

元期: Sep 14, 2026, 17:34 UTC

1 19776U 89004F   26257.73246074 -.00000029  00000-0  00000-0 0  9998
2 19776  12.7151 334.0321 0021548 135.5380 222.7844  0.97992466119260

AllMySatでSL-12 R/B(2)をリアルタイム追跡

Download on the App Store